Weather History for Perryton, TX

Change the Weather History Date:

Monday, August 6, 2012

  Actual Average Record
Temperature  
Mean Temperature 83 °F -  
Max Temperature 98 °F 92 °F 104 °F (2013)
Min Temperature 68 °F 63 °F 52 °F (1990)
Cooling Degree Days 18    
Growing Degree Days 33 (Base 50)    
Moisture  
Dew Point 58 °F    
Average Humidity 47    
Maximum Humidity 83    
Minimum Humidity 21    
Precipitation  
Precipitation 0.00 in - - ()
Sea Level Pressure  
Sea Level Pressure 30.12 in    
Wind  
Wind Speed 9 mph (SSE)    
Max Wind Speed 20 mph    
Max Gust Speed 23 mph    
Visibility 10 miles    
Events      
Averages and records for this station are not official NWS values.
T = Trace of Precipitation, MM = Missing Value Source: NWS Daily Summary

Daily Weather History Graph

Daily Weather History Graph

Search for Another Location

Airport:

Trip Planner

Search our weather history database for the weather conditions in past years. The results will help you decide how hot, cold, wet, or windy it might be!

Date:

Astronomy

Aug. 06, 2012 Rise Set
Actual Time 6:53 AM CDT 8:43 PM CDT
Civil Twilight 6:25 AM CDT 9:11 PM CDT
Nautical Twilight 5:51 AM CDT 9:44 PM CDT
Astronomical Twilight 5:15 AM CDT 10:20 PM CDT
Moon 11:04 PM CDT (8/6) 11:34 AM CDT (8/6)
Length of Visible Light 14h 45m
Length of Day
13h 49m
Waning Gibbous, 78% of the Moon is Illuminated
Aug 6
Waning Gibbous
Aug 9
Last Quarter
Aug 17
New
Aug 24
First Quarter
Aug 31
Full

Hourly Weather History & Observations

Time (CDT) Temp. Heat Index Dew Point Humidity Pressure Visibility Wind Dir Wind Speed Gust Speed Precip Events Conditions
12:15 AM 71.6 °F - 60.8 °F 69% 30.22 in 10.0 mi East 5.8 mph - N/A   Clear
12:35 AM 71.6 °F - 60.8 °F 69% 30.22 in 10.0 mi ESE 5.8 mph - N/A   Clear
1:15 AM 69.8 °F - 60.8 °F 73% 30.21 in 10.0 mi ESE 8.1 mph - N/A   Clear
1:35 AM 69.8 °F - 60.8 °F 73% 30.21 in 10.0 mi ESE 6.9 mph - N/A   Clear
2:35 AM 68.0 °F - 60.8 °F 78% 30.21 in 10.0 mi SE 4.6 mph - N/A   Clear
3:35 AM 68.0 °F - 60.8 °F 78% 30.19 in 10.0 mi SE 5.8 mph - N/A   Clear
3:55 AM 68.0 °F - 60.8 °F 78% 30.20 in 10.0 mi SE 5.8 mph - N/A   Clear
4:35 AM 68.0 °F - 60.8 °F 78% 30.19 in 10.0 mi SSE 6.9 mph - N/A   Clear
4:55 AM 68.0 °F - 62.6 °F 83% 30.19 in 10.0 mi SSE 6.9 mph - N/A   Clear
5:15 AM 69.8 °F - 60.8 °F 73% 30.19 in 10.0 mi SSE 6.9 mph - N/A   Clear
5:35 AM 69.8 °F - 60.8 °F 73% 30.18 in 10.0 mi SSE 6.9 mph - N/A   Clear
5:55 AM 69.8 °F - 60.8 °F 73% 30.18 in 10.0 mi SSE 6.9 mph - N/A   Clear
6:15 AM 68.0 °F - 60.8 °F 78% 30.18 in 10.0 mi SSE 6.9 mph - N/A   Clear
6:35 AM 68.0 °F - 60.8 °F 78% 30.18 in 10.0 mi SSE 8.1 mph - N/A   Clear
6:55 AM 69.8 °F - 60.8 °F 73% 30.18 in 10.0 mi SSE 5.8 mph - N/A   Mostly Cloudy
7:15 AM 69.8 °F - 60.8 °F 73% 30.18 in 10.0 mi SSE 5.8 mph - N/A   Scattered Clouds
7:35 AM 69.8 °F - 60.8 °F 73% 30.19 in 10.0 mi SSE 6.9 mph - N/A   Mostly Cloudy
7:55 AM 71.6 °F - 60.8 °F 69% 30.19 in 10.0 mi South 6.9 mph - N/A   Mostly Cloudy
8:15 AM 71.6 °F - 60.8 °F 69% 30.19 in 10.0 mi SSE 8.1 mph - N/A   Scattered Clouds
8:35 AM 73.4 °F - 60.8 °F 65% 30.19 in 10.0 mi SSE 9.2 mph - N/A   Scattered Clouds
8:55 AM 73.4 °F - 60.8 °F 65% 30.19 in 10.0 mi South 9.2 mph - N/A   Clear
9:15 AM 77.0 °F - 60.8 °F 57% 30.19 in 10.0 mi SSE 9.2 mph - N/A   Mostly Cloudy
9:35 AM 78.8 °F - 60.8 °F 54% 30.19 in 10.0 mi SSE 13.8 mph - N/A   Scattered Clouds
9:55 AM 78.8 °F - 60.8 °F 54% 30.18 in 10.0 mi SSE 12.7 mph - N/A   Clear
10:15 AM 80.6 °F 81.5 °F 60.8 °F 51% 30.18 in 10.0 mi SSE 13.8 mph - N/A   Clear
10:35 AM 82.4 °F 82.9 °F 60.8 °F 48% 30.18 in 10.0 mi South 12.7 mph - N/A   Clear
10:55 AM 84.2 °F 84.4 °F 60.8 °F 45% 30.18 in 10.0 mi South 12.7 mph - N/A   Scattered Clouds
11:15 AM 86.0 °F 86.1 °F 60.8 °F 43% 30.17 in 10.0 mi South 12.7 mph - N/A   Mostly Cloudy
11:35 AM 89.6 °F 89.5 °F 60.8 °F 38% 30.17 in 10.0 mi South 12.7 mph 18.4 mph N/A   Scattered Clouds
11:55 AM 93.2 °F 92.6 °F 59.0 °F 32% 30.16 in 10.0 mi SSW 8.1 mph 17.3 mph N/A   Clear
12:15 PM 89.6 °F 88.9 °F 59.0 °F 36% 30.16 in 10.0 mi SSW 12.7 mph 18.4 mph N/A   Clear
12:35 PM 93.2 °F 92.6 °F 59.0 °F 32% 30.15 in 10.0 mi SSW 12.7 mph 17.3 mph N/A   Clear
12:55 PM 93.2 °F 92.6 °F 59.0 °F 32% 30.14 in 10.0 mi South 12.7 mph 19.6 mph N/A   Clear
1:15 PM 93.2 °F 92.6 °F 59.0 °F 32% 30.14 in 10.0 mi South 13.8 mph 18.4 mph N/A   Clear
1:55 PM 96.8 °F 95.1 °F 55.4 °F 25% 30.12 in 10.0 mi SSW 16.1 mph 21.9 mph N/A   Clear
2:15 PM 96.8 °F 95.1 °F 55.4 °F 25% 30.11 in 10.0 mi SW 15.0 mph 21.9 mph N/A   Clear
2:35 PM 96.8 °F 95.1 °F 55.4 °F 25% 30.10 in 10.0 mi SW 9.2 mph 17.3 mph N/A   Clear
2:55 PM 98.6 °F 97.2 °F 55.4 °F 24% 30.09 in 10.0 mi SW 12.7 mph 19.6 mph N/A   Clear
3:15 PM 96.8 °F 95.1 °F 55.4 °F 25% 30.09 in 10.0 mi SSW 15.0 mph 21.9 mph N/A   Clear
3:35 PM 98.6 °F 96.4 °F 53.6 °F 22% 30.08 in 10.0 mi SSW 13.8 mph 21.9 mph N/A   Clear
3:55 PM 96.8 °F 94.4 °F 53.6 °F 23% 30.07 in 10.0 mi South 12.7 mph 19.6 mph N/A   Clear
4:15 PM 98.6 °F 96.4 °F 53.6 °F 22% 30.06 in 10.0 mi SSW 12.7 mph 17.3 mph N/A   Clear
4:35 PM 98.6 °F - 51.8 °F 21% 30.05 in 10.0 mi SSW 16.1 mph 21.9 mph N/A   Clear
4:55 PM 98.6 °F - 51.8 °F 21% 30.05 in 10.0 mi SSW 15.0 mph 19.6 mph N/A   Clear
5:15 PM 98.6 °F - 51.8 °F 21% 30.04 in 10.0 mi South 12.7 mph 18.4 mph N/A   Clear
5:35 PM 98.6 °F - 51.8 °F 21% 30.03 in 10.0 mi South 12.7 mph - N/A   Clear
5:55 PM 98.6 °F - 51.8 °F 21% 30.03 in 10.0 mi SSE 9.2 mph - N/A   Clear
6:15 PM 96.8 °F 94.4 °F 53.6 °F 23% 30.03 in 10.0 mi SSE 12.7 mph - N/A   Clear
6:35 PM 98.6 °F 96.4 °F 53.6 °F 22% 30.02 in 10.0 mi SE 16.1 mph - N/A   Clear
6:55 PM 96.8 °F 94.4 °F 53.6 °F 23% 30.02 in 10.0 mi SE 17.3 mph 23.0 mph N/A   Clear
7:15 PM 95.0 °F 92.7 °F 53.6 °F 25% 30.02 in 10.0 mi SE 15.0 mph - N/A   Clear
7:35 PM 95.0 °F 92.7 °F 53.6 °F 25% 30.02 in 10.0 mi SE 19.6 mph 23.0 mph N/A   Clear
7:55 PM 95.0 °F 92.7 °F 53.6 °F 25% 30.02 in 10.0 mi SE 13.8 mph - N/A   Clear
8:15 PM 91.4 °F 89.1 °F 53.6 °F 28% 30.02 in 10.0 mi South 12.7 mph - N/A   Clear
8:35 PM 89.6 °F 87.3 °F 53.6 °F 29% 30.03 in 10.0 mi South 13.8 mph - N/A   Clear
8:55 PM 87.8 °F 85.7 °F 53.6 °F 31% 30.03 in 10.0 mi SSE 9.2 mph - N/A   Clear
9:15 PM 86.0 °F 84.5 °F 55.4 °F 35% 30.03 in 10.0 mi SSE 8.1 mph - N/A   Clear
9:35 PM 82.4 °F 81.7 °F 55.4 °F 39% 30.03 in 10.0 mi SSE 9.2 mph - N/A   Clear
9:55 PM 80.6 °F 80.8 °F 57.2 °F 45% 30.04 in 10.0 mi SSE 8.1 mph - N/A   Clear
10:15 PM 80.6 °F 80.8 °F 57.2 °F 45% 30.04 in 10.0 mi SSE 10.4 mph - N/A   Clear
10:35 PM 80.6 °F 81.1 °F 59.0 °F 48% 30.04 in 10.0 mi SSE 10.4 mph - N/A   Clear
10:55 PM 78.8 °F - 59.0 °F 51% 30.04 in 10.0 mi SSE 10.4 mph - N/A   Clear
11:15 PM 78.8 °F - 59.0 °F 51% 30.04 in 10.0 mi SSE 8.1 mph - N/A   Clear
11:55 PM 78.8 °F - 60.8 °F 54% 30.05 in 10.0 mi SSE 9.2 mph - N/A   Clear